TimeCST,TemperatureF,Dew PointF,Humidity,Sea Level PressureIn,VisibilityMPH,Wind Direction,Wind SpeedMPH,Gust SpeedMPH,PrecipitationIn,Events,Conditions,WindDirDegrees,DateUTC
12:15 AM,35.6,32.0,87,30.32,9.0,Calm,Calm,-,N/A,,Clear,0,2012-12-05 06:15:00
12:35 AM,33.8,32.0,93,30.32,10.0,Calm,Calm,-,N/A,,Clear,0,2012-12-05 06:35:00
12:55 AM,33.8,32.0,93,30.33,7.0,Calm,Calm,-,N/A,,Clear,0,2012-12-05 06:55:00
1:15 AM,33.8,32.0,93,30.34,9.0,Calm,Calm,-,N/A,,Clear,0,2012-12-05 07:15:00
1:35 AM,33.8,32.0,93,30.35,9.0,Calm,Calm,-,N/A,,Clear,0,2012-12-05 07:35:00
1:55 AM,33.8,32.0,93,30.35,6.0,Calm,Calm,-,N/A,,Clear,0,2012-12-05 07:55:00
2:15 AM,33.8,33.8,100,30.35,10.0,Calm,Calm,-,N/A,,Clear,0,2012-12-05 08:15:00
2:35 AM,33.8,32.0,93,30.35,10.0,Calm,Calm,-,N/A,,Clear,0,2012-12-05 08:35:00
2:55 AM,33.8,32.0,93,30.35,10.0,Calm,Calm,-,N/A,,Clear,0,2012-12-05 08:55:00
3:15 AM,33.8,32.0,93,30.35,10.0,Calm,Calm,-,N/A,,Clear,0,2012-12-05 09:15:00
3:35 AM,33.8,32.0,93,30.34,9.0,Calm,Calm,-,N/A,,Clear,0,2012-12-05 09:35:00
3:55 AM,33.8,32.0,93,30.34,10.0,Calm,Calm,-,N/A,,Clear,0,2012-12-05 09:55:00
4:15 AM,32.0,32.0,100,30.33,10.0,Calm,Calm,-,N/A,,Clear,0,2012-12-05 10:15:00
4:35 AM,32.0,32.0,100,30.33,10.0,Calm,Calm,-,N/A,,Clear,0,2012-12-05 10:35:00
4:55 AM,32.0,32.0,100,30.33,10.0,Calm,Calm,-,N/A,,Clear,0,2012-12-05 10:55:00
5:15 AM,32.0,32.0,100,30.33,10.0,Calm,Calm,-,N/A,,Clear,0,2012-12-05 11:15:00
5:35 AM,32.0,32.0,100,30.33,10.0,Calm,Calm,-,N/A,,Clear,0,2012-12-05 11:35:00
5:55 AM,32.0,32.0,100,30.33,10.0,Calm,Calm,-,N/A,,Clear,0,2012-12-05 11:55:00
6:15 AM,32.0,32.0,100,30.33,10.0,Calm,Calm,-,N/A,,Clear,0,2012-12-05 12:15:00
6:35 AM,32.0,32.0,100,30.34,10.0,Calm,Calm,-,N/A,,Clear,0,2012-12-05 12:35:00
6:55 AM,32.0,32.0,100,30.34,10.0,Calm,Calm,-,N/A,,Clear,0,2012-12-05 12:55:00
8:55 AM,35.6,33.8,93,30.34,8.0,Calm,Calm,-,N/A,,Clear,0,2012-12-05 14:55:00
9:15 AM,37.4,37.4,100,30.35,8.0,East,5.8,-,N/A,,Clear,90,2012-12-05 15:15:00
9:35 AM,41.0,37.4,87,30.35,9.0,East,3.5,-,N/A,,Clear,90,2012-12-05 15:35:00
9:55 AM,44.6,39.2,81,30.34,9.0,ESE,5.8,-,N/A,,Clear,110,2012-12-05 15:55:00
10:15 AM,46.4,39.2,76,30.34,9.0,ESE,5.8,-,N/A,,Clear,120,2012-12-05 16:15:00
10:35 AM,48.2,39.2,71,30.34,9.0,ESE,3.5,-,N/A,,Clear,120,2012-12-05 16:35:00
10:55 AM,50.0,39.2,66,30.34,8.0,ESE,3.5,-,N/A,,Clear,120,2012-12-05 16:55:00
11:15 AM,51.8,39.2,62,30.33,10.0,Calm,Calm,-,N/A,,Clear,0,2012-12-05 17:15:00
11:55 AM,55.4,35.6,47,30.30,9.0,SSE,6.9,-,N/A,,Clear,150,2012-12-05 17:55:00
12:15 PM,57.2,37.4,48,30.28,10.0,SSE,4.6,-,N/A,,Clear,150,2012-12-05 18:15:00
12:35 PM,59.0,33.8,39,30.27,10.0,SSE,8.1,-,N/A,,Clear,150,2012-12-05 18:35:00
12:55 PM,60.8,32.0,34,30.26,9.0,South,8.1,-,N/A,,Clear,180,2012-12-05 18:55:00
1:15 PM,59.0,32.0,36,30.26,10.0,SSE,8.1,-,N/A,,Clear,160,2012-12-05 19:15:00
1:35 PM,59.0,32.0,36,30.24,8.0,SSE,4.6,-,N/A,,Clear,160,2012-12-05 19:35:00
1:55 PM,59.0,32.0,36,30.23,10.0,Calm,Calm,-,N/A,,Clear,0,2012-12-05 19:55:00
2:15 PM,59.0,33.8,39,30.22,9.0,SSE,6.9,-,N/A,,Clear,150,2012-12-05 20:15:00
2:35 PM,60.8,32.0,34,30.21,9.0,SSE,6.9,-,N/A,,Clear,160,2012-12-05 20:35:00
2:55 PM,60.8,32.0,34,30.20,8.0,South,6.9,-,N/A,,Clear,170,2012-12-05 20:55:00
3:15 PM,60.8,32.0,34,30.19,10.0,South,5.8,-,N/A,,Clear,170,2012-12-05 21:15:00
3:35 PM,59.0,33.8,39,30.19,9.0,South,6.9,-,N/A,,Clear,170,2012-12-05 21:35:00
3:55 PM,57.2,32.0,38,30.18,10.0,South,4.6,-,N/A,,Clear,170,2012-12-05 21:55:00
4:15 PM,57.2,32.0,38,30.18,8.0,Calm,Calm,-,N/A,,Clear,0,2012-12-05 22:15:00
4:35 PM,55.4,33.8,44,30.18,6.0,Calm,Calm,-,N/A,,Haze,0,2012-12-05 22:35:00
4:55 PM,53.6,33.8,47,30.17,7.0,Calm,Calm,-,N/A,,Clear,0,2012-12-05 22:55:00
5:15 PM,51.8,33.8,50,30.16,7.0,SE,4.6,-,N/A,,Clear,130,2012-12-05 23:15:00
5:35 PM,51.8,33.8,50,30.16,3.0,SE,5.8,-,N/A,,Haze,130,2012-12-05 23:35:00
5:55 PM,51.8,33.8,50,30.16,10.0,Calm,Calm,-,N/A,,Clear,0,2012-12-05 23:55:00
6:15 PM,50.0,32.0,50,30.15,10.0,Calm,Calm,-,N/A,,Clear,0,2012-12-06 00:15:00
6:35 PM,50.0,33.8,54,30.15,10.0,Calm,Calm,-,N/A,,Clear,0,2012-12-06 00:35:00
6:55 PM,48.2,33.8,58,30.14,10.0,SE,4.6,-,N/A,,Clear,140,2012-12-06 00:55:00
7:15 PM,48.2,33.8,58,30.14,10.0,Calm,Calm,-,N/A,,Clear,0,2012-12-06 01:15:00
7:35 PM,48.2,33.8,58,30.13,10.0,Calm,Calm,-,N/A,,Clear,0,2012-12-06 01:35:00
7:55 PM,48.2,33.8,58,30.13,10.0,Calm,Calm,-,N/A,,Clear,0,2012-12-06 01:55:00
8:15 PM,46.4,33.8,62,30.12,10.0,SE,4.6,-,N/A,,Clear,130,2012-12-06 02:15:00
8:35 PM,46.4,33.8,62,30.12,10.0,Calm,Calm,-,N/A,,Clear,0,2012-12-06 02:35:00
8:55 PM,46.4,33.8,62,30.11,10.0,SE,5.8,-,N/A,,Clear,140,2012-12-06 02:55:00
9:15 PM,46.4,33.8,62,30.10,10.0,Calm,Calm,-,N/A,,Clear,0,2012-12-06 03:15:00
9:35 PM,46.4,33.8,62,30.10,10.0,Calm,Calm,-,N/A,,Clear,0,2012-12-06 03:35:00
9:55 PM,44.6,33.8,66,30.09,10.0,SE,5.8,-,N/A,,Clear,140,2012-12-06 03:55:00
10:15 PM,44.6,33.8,66,30.09,10.0,Calm,Calm,-,N/A,,Clear,0,2012-12-06 04:15:00
10:35 PM,44.6,32.0,61,30.09,10.0,Calm,Calm,-,N/A,,Clear,0,2012-12-06 04:35:00
10:55 PM,44.6,32.0,61,30.09,10.0,Calm,Calm,-,N/A,,Clear,0,2012-12-06 04:55:00
11:15 PM,41.0,33.8,76,30.08,10.0,Calm,Calm,-,N/A,,Clear,0,2012-12-06 05:15:00
11:35 PM,42.8,33.8,70,30.08,10.0,SSE,5.8,-,N/A,,Clear,150,2012-12-06 05:35:00
11:55 PM,42.8,33.8,70,30.08,10.0,SE,6.9,-,N/A,,Clear,140,2012-12-06 05:55:00